User: anonymous   Login
Location: Newark
(37.3333°N, 6.0167°W)
Time: 08:42:17
(UTC+00:00)
Language:

LightSail 2 - Orbit

View from above orbital plane
View from above orbital plane
View from above satellite
View from above satellite

Ground track
Ground track

The orbit data is extracted from the following two-line orbital elements,

1 44420U 19036AC  19340.46556181  .00003824  00000-0  84046-3 0  9998
2 44420  24.0081 251.7377 0024620 178.0286 182.0377 14.53823633 22032
Epoch (UTC): 06 December 2019 11:10:24
Eccentricity: 0.0024620
inclination: 24.0081°
perigee height: 696 km
apogee height: 730 km
right ascension of ascending node: 251.7377°
argument of perigee: 178.0286°
revolutions per day: 14.53823633
mean anomaly at epoch: 182.0377°
orbit number at epoch: 2203

The dashed part of the orbit path shows where the satellite is in the earth's shadow,  

DLR